Regional Weather Roundup
Issued by NWS Upton, NY

Current Version | Previous Version | Text Only | Print | Product List | Glossary Off
Versions: 1 2 3 4 5 6 7 8 9 10 11 12 13 14 15 16 17 18 19 20 21 22 23 24 25 26 27 28
000 ASUS41 KOKX 241105 RWROKX REGIONAL WEATHER ROUNDUP NATIONAL WEATHER SERVICE NEW YORK NY 700 AM EDT TUE MAY 24 2016 NOTE: "FAIR" INDICATES FEW OR NO CLOUDS BELOW 12,000 FEET WITH NO SIGNIFICANT WEATHER AND/OR OBSTRUCTIONS TO VISIBILITY. NYZ071-072-176-178-NJZ106-104-241200- NEW YORK CITY METRO AREA CITY SKY/WX TMP DP RH WIND PRES REMARKS CENTRAL PARK LGT RAIN 59 56 89 W5 29.92R FOG LAGUARDIA APRT LGT RAIN 62 60 93 NW6 29.88R KENNEDY INTL LGT RAIN 60 56 86 N7 29.89R NEWARK/LIBERTY LGT RAIN 60 57 89 W3 29.90R BRNX BOT. GARD N/A 59 55 88 N2 29.90F TETERBORO LGT RAIN 59 55 87 SW3 29.88R $$ NYZ177-179-078>081-241200- LONG ISLAND NEW YORK CITY SKY/WX TMP DP RH WIND PRES REMARKS FARMINGDALE CLOUDY 58 55 90 W3 29.88R FOG ISLIP LGT RAIN 58 54 86 N6 29.88R SHIRLEY CLOUDY 58 54 86 W6 29.87S RIVERHEAD N/A 59 55 88 NE3 29.86R WESTHAMPTON CLOUDY 53 32 44 CALM 29.87S EAST HAMPTON CLOUDY 56 54 94 N3 29.85R MONTAUK POINT N/A 54 54 100 N7 29.86S $$ NYZ052-065-067-241200- HUDSON VALLEY CITY SKY/WX TMP DP RH WIND PRES REMARKS WHITE PLAINS LGT RAIN 58 55 90 NW7 29.88R NEWBURGH NOT AVBL MONTGOMERY LGT RAIN 58 55 90 NW5 29.90S FOG POUGHKEEPSIE LGT RAIN 58 55 90 SW7 29.87F FOG ALBANY CLOUDY 61 55 81 CALM 29.90S $$ NJZ001-105-106-008-010-013-015-019>022-104-241200- NEW JERSEY CITY SKY/WX TMP DP RH WIND PRES REMARKS NEWARK/LIBERTY LGT RAIN 60 57 89 W3 29.90R TETERBORO LGT RAIN 59 55 87 SW3 29.88R CALDWELL LGT RAIN 58 56 93 CALM 29.90R MORRISTOWN LGT RAIN 59 57 94 CALM 29.90R SOMERVILLE CLOUDY 57 55 93 CALM 29.88F FOG SUSSEX CLOUDY 58 55 90 CALM 29.91R ANDOVER N/A 58 56 93 CALM 29.92R TRENTON CLOUDY 57 55 93 W3 29.90S FOG MILLVILLE CLOUDY 56 55 97 CALM 29.92R FOG ATLANTIC CITY CLOUDY 57 55 93 W5 29.92R WRIGHTSTOWN NOT AVBL TOMS RIVER CLOUDY 55 52 88 W5 29.91S BELMAR CLOUDY 57 56 96 NW6 29.91R $$ PAZ047>061-062-071-241200- EASTERN PENNSYLVANIA CITY SKY/WX TMP DP RH WIND PRES REMARKS PHILADELPHIA CLOUDY 59 56 89 CALM 29.92S ALLENTOWN MOSUNNY 57 54 89 CALM 29.94R SCRANTON MOSUNNY 55 47 74 CALM 29.95R $$ CTZ002-004>006-009-010-012-RIZ004-006-007-MAZ004-011-015-241200- SOUTHERN NEW ENGLAND IN CT CITY SKY/WX TMP DP RH WIND PRES REMARKS BRADLEY INTL LGT RAIN 58 54 86 N7 29.89R HARTFORD CLOUDY 62 54 74 N9 29.88R DANBURY RAIN 57 54 89 SW5 29.89R FOG WTRBRY/OXFORD LGT RAIN 55 52 88 CALM 29.91R FOG BRIDGEPORT HVY RAIN 58 55 90 N13 29.88R FOG MERIDEN RAIN 58 56 93 CALM 29.90R FOG NEW HAVEN RAIN 57 56 96 NW7 29.87S FOG CHESTER LGT RAIN 57 55 94 N8 29.86F GROTON LGT RAIN 57 56 96 N7 29.85F WILLIMANTIC CLOUDY 60 54 80 NE9 29.88R IN RI CITY SKY/WX TMP DP RH WIND PRES REMARKS PROVIDENCE CLOUDY 55 52 89 NE10 29.88S BLOCK ISLAND CLOUDY 54 53 97 NE12 29.85S WESTERLY CLOUDY 57 52 83 N8 29.85F IN MA CITY SKY/WX TMP DP RH WIND PRES REMARKS BOSTON LGT RAIN 52 51 97 NE12 29.91F WORCESTER NOT AVBL WESTFIELD LGT RAIN 57 54 89 N7 29.90R PROVINCETOWN CLOUDY 50 50 100 NE13 29.91R FOG NANTUCKET FOG 55 53 93 E10 29.85S VSB 1/2 $$ ANZ330-335-338-340-345-350-353-355-241200- COASTAL MARINE OBSERVATIONS STATION/POSITION TIME SKY/WX TEMP WIND PRES VSBY WAVE AIR SEA DIR/SP/G HT/PER (UTC) (F) (DEG/KT/KT) (MB) (MI) (FT/S) NY HARB ENTRANCE 0950 57 56 280/ 10/ 12 1011.2 3/ 9 20S FIRE ISLAND 0950 56 54 280/ 12/ 14 1010.8 4/ 9 GREAT SOUTH BAY 1000 58 63 310/ 4/ 8 N/A 23 SSW MONTAUK P 1050 54 54 40/ 14/ 17 1009.7 4/ 9 15 E BARNEGAT LI 1022 54 N/A 4/ 7 HUDSON CANYON 0950 53 52 1011.2 5/ 7 KINGS POINT 1000 59 57 1011.4 EXECUTION ROCKS NOT AVBL CENTRAL LI SOUND 1000 57 40/ 14/ 19 N/A 1/ 3 EASTERN LI SOUND 1000 56 53 60/ 6/ 10 N/A ROBBINS REEF 1000 58 270/ 5/ 5 1011.3 $$ >>>>>>>>>>>>>>>>>>>>>>>>>>>> KEY <<<<<<<<<<<<<<<<<<<<<<<<<<< > < > SKY/WX - SKY CONDITION/PRESENT WEATHER < > TMP - TEMPERATURE IN FAHRENHEIT < > DP - DEWPOINT IN FAHRENHEIT < > RH - RELATIVE HUMIDITY IN PERCENT < > WIND - DIRECTION AND SPEED IN MPH < > PRES - MEAN SEA LEVEL PRESSURE IN INCHES OF HG < > WCI - WIND CHILL INDEX < > VSB - VISIBILITY IN MILES < > HX - HEAT INDEX < > TC - TEMPERATURE IN CELSIUS < > VRB - VARIABLE WIND DIRECTION < > < >>>>>>>>>>>>>>>>>>>>>>>>>>>> KEY <<<<<<<<<<<<<<<<<<<<<<<<<<<

USA.gov is the U.S. government's official web portal to all federal, state and local government web resources and services.